Retour au catalogue

FENGYUN 1C DEB

LostSSO
NORAD 30975·DEBRIS·🇨🇳 China

Lancé May 10, 1999 depuis Taiyuan Satellite Launch Center

Loading…

Prochains Passages (prochaines 24 heures)

TLE

PériméSource: Space-Track

Époque: Jun 29, 2023, 05:48 UTC

1 30975U 99025BBR 23180.24225106  .00003622  00000-0  12236-2 0  9994
2 30975  99.0848 352.0045 0202299  23.1794 337.8354 14.26665204842174

Suivez FENGYUN 1C DEB en temps réel avec AllMySat

Download on the App Store